Tracking 19644 objects as of 25-Apr-2019
HD Live streaming from Space Station
objects crossing your sky now

AISTECHSAT

Track AISTECHSAT now!
10-day predictions
AISTECHSAT is classified as:


NORAD ID: 44103
Int'l Code: 2019-018AB
Perigee: 496.6 km
Apogee: 514.2 km
Inclination: 97.5 °
Period: 94.6 minutes
Semi major axis: 6876 km
RCS: Unknown
Launch date: April 1, 2019
Source: Spain (SPN)
Launch site: SRIHARIKOTA (SRI)

Uplink (MHz):
Downlink (MHz): 436.730
Beacon (MHz):
Mode: 4k8/9k6 GFSK
Call sign:
Status: Active

aabbcc
Your satellite tracking list
Your tracking list is empty




NASA's NSSDC Master Catalog

Two Line Element Set (TLE):
1 44103U 19018AB  19115.13019366  .00000923  00000-0  42813-4 0  9993
2 44103  97.4617 175.5186 0012786 212.3052 147.7403 15.22518351  3619
Source of the keplerian elements: AFSPC